TimeCDT,TemperatureF,Dew PointF,Humidity,Sea Level PressureIn,VisibilityMPH,Wind Direction,Wind SpeedMPH,Gust SpeedMPH,PrecipitationIn,Events,Conditions,WindDirDegrees,DateUTC
12:15 AM,73.4,69.8,88,29.93,10.0,South,11.5,-,N/A,,Clear,190,2013-08-21 05:15:00
12:35 AM,73.4,69.8,88,29.93,10.0,SSW,11.5,-,N/A,,Clear,200,2013-08-21 05:35:00
12:55 AM,73.4,69.8,88,29.94,10.0,SSW,12.7,-,N/A,,Clear,200,2013-08-21 05:55:00
1:15 AM,73.4,69.8,88,29.93,10.0,South,11.5,-,N/A,,Clear,190,2013-08-21 06:15:00
1:35 AM,73.4,69.8,88,29.93,10.0,South,11.5,-,N/A,,Clear,190,2013-08-21 06:35:00
1:55 AM,73.4,69.8,88,29.93,10.0,SSW,10.4,-,N/A,,Clear,200,2013-08-21 06:55:00
2:15 AM,73.4,69.8,88,29.93,10.0,SSW,10.4,-,N/A,,Clear,200,2013-08-21 07:15:00
2:35 AM,73.4,69.8,88,29.93,10.0,SSW,12.7,-,N/A,,Clear,200,2013-08-21 07:35:00
2:55 AM,73.4,69.8,88,29.93,10.0,SSW,11.5,18.4,N/A,,Clear,200,2013-08-21 07:55:00
3:15 AM,73.4,69.8,88,29.93,10.0,SSW,10.4,16.1,N/A,,Clear,200,2013-08-21 08:15:00
3:35 AM,73.4,69.8,88,29.93,10.0,SSW,12.7,-,N/A,,Clear,200,2013-08-21 08:35:00
3:55 AM,73.4,68.0,83,29.93,10.0,SSW,12.7,19.6,N/A,,Clear,200,2013-08-21 08:55:00
4:15 AM,73.4,68.0,83,29.94,10.0,SSW,9.2,-,N/A,,Clear,210,2013-08-21 09:15:00
4:35 AM,73.4,68.0,83,29.93,10.0,SSW,10.4,-,N/A,,Clear,210,2013-08-21 09:35:00
4:55 AM,71.6,68.0,88,29.93,10.0,SSW,11.5,-,N/A,,Clear,210,2013-08-21 09:55:00
5:15 AM,71.6,68.0,88,29.93,10.0,SSW,11.5,-,N/A,,Clear,210,2013-08-21 10:15:00
5:35 AM,71.6,68.0,88,29.93,10.0,SSW,11.5,-,N/A,,Clear,200,2013-08-21 10:35:00
5:55 AM,71.6,68.0,88,29.94,10.0,SSW,11.5,-,N/A,,Clear,200,2013-08-21 10:55:00
6:15 AM,71.6,68.0,88,29.93,10.0,SSW,11.5,-,N/A,,Clear,210,2013-08-21 11:15:00
6:35 AM,71.6,68.0,88,29.94,9.0,SSW,11.5,-,N/A,,Clear,210,2013-08-21 11:35:00
6:55 AM,71.6,68.0,88,29.94,9.0,SSW,12.7,-,N/A,,Clear,210,2013-08-21 11:55:00
7:15 AM,71.6,68.0,88,29.94,9.0,SSW,12.7,-,N/A,,Clear,210,2013-08-21 12:15:00
7:35 AM,71.6,68.0,88,29.94,9.0,SW,13.8,19.6,N/A,,Clear,220,2013-08-21 12:35:00
7:55 AM,71.6,68.0,88,29.94,9.0,SW,15.0,-,N/A,,Clear,220,2013-08-21 12:55:00
8:15 AM,73.4,68.0,83,29.94,9.0,SSW,12.7,20.7,N/A,,Clear,210,2013-08-21 13:15:00
8:35 AM,73.4,68.0,83,29.94,9.0,SW,16.1,24.2,N/A,,Clear,220,2013-08-21 13:35:00
8:55 AM,73.4,68.0,83,29.94,9.0,SW,16.1,25.3,N/A,,Clear,220,2013-08-21 13:55:00
9:15 AM,75.2,68.0,78,29.94,9.0,SW,16.1,28.8,N/A,,Clear,220,2013-08-21 14:15:00
9:35 AM,75.2,68.0,78,29.94,9.0,SW,16.1,24.2,N/A,,Clear,220,2013-08-21 14:35:00
9:55 AM,77.0,68.0,74,29.94,10.0,SW,15.0,21.9,N/A,,Clear,220,2013-08-21 14:55:00
10:15 AM,77.0,69.8,78,29.94,10.0,SW,13.8,21.9,N/A,,Clear,220,2013-08-21 15:15:00
10:35 AM,77.0,68.0,74,29.95,10.0,SW,12.7,20.7,N/A,,Clear,220,2013-08-21 15:35:00
10:55 AM,77.0,68.0,74,29.96,9.0,SW,11.5,19.6,N/A,,Clear,230,2013-08-21 15:55:00
11:15 AM,78.8,69.8,74,29.96,9.0,SSW,15.0,-,N/A,,Clear,210,2013-08-21 16:15:00
11:35 AM,78.8,68.0,69,29.96,10.0,SW,12.7,-,N/A,,Clear,230,2013-08-21 16:35:00
11:55 AM,80.6,69.8,70,29.97,10.0,SW,11.5,-,N/A,,Clear,220,2013-08-21 16:55:00
12:15 PM,80.6,69.8,70,29.97,10.0,SW,10.4,17.3,N/A,,Clear,220,2013-08-21 17:15:00
12:35 PM,82.4,69.8,66,29.97,10.0,SW,11.5,-,N/A,,Clear,230,2013-08-21 17:35:00
12:55 PM,82.4,69.8,66,29.96,10.0,SSW,12.7,20.7,N/A,,Clear,210,2013-08-21 17:55:00
1:15 PM,82.4,69.8,66,29.97,10.0,SW,11.5,19.6,N/A,,Clear,230,2013-08-21 18:15:00
1:35 PM,84.2,69.8,62,29.96,10.0,SW,13.8,-,N/A,,Clear,230,2013-08-21 18:35:00
1:55 PM,84.2,71.6,66,29.97,9.0,SW,12.7,-,N/A,,Clear,230,2013-08-21 18:55:00
2:15 PM,82.4,71.6,70,29.97,10.0,SW,10.4,17.3,N/A,,Clear,230,2013-08-21 19:15:00
2:35 PM,82.4,71.6,70,29.97,9.0,SW,9.2,-,N/A,,Clear,230,2013-08-21 19:35:00
2:55 PM,82.4,71.6,70,29.97,10.0,SW,6.9,-,N/A,,Clear,230,2013-08-21 19:55:00
3:15 PM,82.4,71.6,70,29.96,10.0,SW,9.2,-,N/A,,Clear,220,2013-08-21 20:15:00
3:35 PM,82.4,71.6,70,29.96,9.0,SSW,11.5,-,N/A,,Clear,200,2013-08-21 20:35:00
3:55 PM,82.4,71.6,70,29.96,10.0,SSW,12.7,-,N/A,,Clear,210,2013-08-21 20:55:00
4:15 PM,84.2,71.6,66,29.96,9.0,SSW,10.4,-,N/A,,Clear,200,2013-08-21 21:15:00
4:35 PM,84.2,71.6,66,29.96,9.0,SSW,10.4,-,N/A,,Clear,200,2013-08-21 21:35:00
4:55 PM,84.2,73.4,70,29.96,10.0,SW,9.2,-,N/A,,Clear,220,2013-08-21 21:55:00
5:15 PM,84.2,73.4,70,29.96,9.0,SW,8.1,-,N/A,,Clear,230,2013-08-21 22:15:00
5:35 PM,84.2,73.4,70,29.96,10.0,WSW,4.6,-,N/A,,Clear,240,2013-08-21 22:35:00
5:55 PM,84.2,75.2,74,29.97,10.0,Calm,Calm,-,N/A,,Clear,0,2013-08-21 22:55:00
6:15 PM,84.2,75.2,74,29.97,9.0,West,4.6,-,N/A,,Clear,280,2013-08-21 23:15:00
6:35 PM,82.4,75.2,79,29.96,9.0,Calm,Calm,-,N/A,,Clear,0,2013-08-21 23:35:00
6:55 PM,82.4,73.4,74,29.97,9.0,West,6.9,-,N/A,,Clear,270,2013-08-21 23:55:00
7:15 PM,80.6,73.4,79,29.97,9.0,West,4.6,-,N/A,,Clear,280,2013-08-22 00:15:00
7:35 PM,78.8,73.4,83,29.98,8.0,NW,5.8,-,N/A,,Clear,310,2013-08-22 00:35:00
7:55 PM,78.8,73.4,83,29.98,9.0,NNW,4.6,-,N/A,,Clear,330,2013-08-22 00:55:00
8:15 PM,78.8,73.4,83,29.98,8.0,North,5.8,-,N/A,,Clear,350,2013-08-22 01:15:00
8:35 PM,77.0,75.2,94,29.98,7.0,ENE,4.6,-,N/A,,Clear,60,2013-08-22 01:35:00
8:55 PM,75.2,73.4,94,29.98,7.0,East,4.6,-,N/A,,Clear,100,2013-08-22 01:55:00
9:15 PM,75.2,73.4,94,29.99,6.0,East,5.8,-,N/A,,Clear,80,2013-08-22 02:15:00
9:35 PM,75.2,73.4,94,30.00,6.0,ESE,5.8,-,N/A,,Clear,110,2013-08-22 02:35:00
9:55 PM,75.2,73.4,94,30.00,6.0,SE,8.1,-,N/A,,Clear,140,2013-08-22 02:55:00
10:15 PM,73.4,73.4,100,29.99,5.0,East,4.6,-,N/A,,Clear,100,2013-08-22 03:15:00
10:35 PM,73.4,73.4,100,30.00,6.0,SE,5.8,-,N/A,,Clear,130,2013-08-22 03:35:00
10:55 PM,75.2,73.4,94,29.99,6.0,SE,6.9,-,N/A,,Clear,130,2013-08-22 03:55:00
11:15 PM,75.2,73.4,94,29.99,7.0,SE,5.8,-,N/A,,Clear,140,2013-08-22 04:15:00
11:35 PM,75.2,73.4,94,29.99,7.0,SSE,5.8,-,N/A,,Clear,150,2013-08-22 04:35:00
11:55 PM,75.2,73.4,94,29.98,8.0,South,9.2,-,N/A,,Clear,190,2013-08-22 04:55:00